Tracking 20092 objects as of 14-Dec-2019
HD Live streaming from Space Station
objects crossing your sky now

COSMOS 2251 DEB

Track COSMOS 2251 DEB now!
10-day predictions


NORAD ID: 34912
Int'l Code: 1993-036ADH
Perigee: 615.0 km
Apogee: 705.4 km
Inclination: 74.2 °
Period: 97.8 minutes
Semi major axis: 7031 km
RCS: 0.0029 m2 (small)
Launch date: June 16, 1993
Source: Commonwealth of Independent States (former USSR) (CIS)
Launch site: PLESETSK MISSILE AND SPACE COMPLEX (PKMTR)

Note: This is SATELLITE DEBRIS
aabbcc
Your satellite tracking list
Your tracking list is empty




NASA's NSSDC Master Catalog

Two Line Element Set (TLE):
1 34912U 93036ADH 19346.57054797 +.00000615 +00000-0 +98987-4 0  9994
2 34912 074.1665 050.2653 0064284 217.0084 142.6647 14.72500760572092
Source of the keplerian elements: AFSPC